Zurück zum Katalog

CZ-4C R/B

AktivLEO
NORAD 65234·ROCKET BODY·🇨🇳 China

Gestartet Aug 17, 2025 von Xichang Satellite Launch Center

Loading…

Nächste Überflüge (nächste 24 Stunden)

TLE

AktuellSource: Space-Track

Epoche: Sep 14, 2026, 10:48 UTC

1 65234U 25177B   26257.45035301  .00000898  00000-0  57831-4 0  9998
2 65234  10.9959 309.4200 0150143 180.0123 180.0110 14.57996617 57448

Verfolge CZ-4C R/B in Echtzeit mit AllMySat

Download on the App Store